Miscellaneous Local Product
Issued by NWS North Platte, NE

Home | Current Version | Previous Version | Text Only | Print | Product List | Glossary On
Versions: 1 2 3 4 5 6 7 8 9 10 11 12 13 14 15 16 17 18 19 20 21 22 23 24 25 26 27 28 29 30 31 32 33 34 35 36 37 38 39 40 41 42 43 44 45 46 47 48 49 50
872
AXUS43 KLBF 110710
MISLBF


WESTERN AND NORTH CENTRAL NEBRASKA HOURLY WEATHER ROUNDUP
NATIONAL WEATHER SERVICE NORTH PLATTE NE
100 AM CST THU FEB 11 2016

NOTE: "FAIR" INDICATES FEW OR NO CLOUDS BELOW 12,000 FEET WITH NO
SIGNIFICANT WEATHER AND/OR OBSTRUCTIONS TO VISIBILITY.

NOTE: STATIONS NOT REPORTING VARIABLES SUCH AS SKY/WEATHER OR
PRESSURE ARE PROVIDED BY THE NEBRASKA DEPARTMENT OF
ROADS...RAWS...AND APRS NETWORKS...AND ARE NOT UNDER
NATIONAL WEATHER SERVICE QUALITY CONTROL.

...OBSERVATIONS IN AND NEAR THE EASTERN PANHANDLE OF NEBRASKA...

CITY           SKY/WX    TMP DP  RH WIND       PRES   REMARKS
PINE RIDGE     CLEAR     26  23  88 E6        30.13S WCI  19
CHADRON        CLEAR     27  23  85 CALM      30.13S
ALLIANCE       CLOUDY    24  22  91 W12       30.11F WCI  13
SIDNEY         CLOUDY    34  25  69 W13       30.14F WCI  25
CRESCENT LAKE    N/A     31  27  83 CALM        N/A
BIG SPRINGS      N/A     31  27  83 SE6         N/A  WCI  25
$$

...OBSERVATIONS IN NORTH CENTRAL NEBRASKA...

CITY           SKY/WX    TMP DP  RH WIND       PRES   REMARKS
VALENTINE      CLOUDY    26  24  92 N9        30.17S WCI  17
THEDFORD       CLOUDY    31  30  94 N6        30.16R WCI  25
AINSWORTH      CLOUDY    28  26  90 N12       30.17R WCI  18
O`NEILL        CLOUDY    26  24  93 N3        30.17R
ORD            CLOUDY    30  26  85 N10       30.15R WCI  21
BROKEN BOW     CLOUDY    30  27  88 N12       30.15R WCI  20
VALENTINE NWR    N/A     29  27  93 N9          N/A  WCI  21
BUTTE            N/A     23  21  93 NE3         N/A
HALSEY           N/A     30  28  90 N6          N/A  WCI  24
CHAMBERS         N/A     26  22  85 N3          N/A
EWING            N/A     22  20  91 CALM        N/A
$$

...OBSERVATIONS IN SOUTHWEST NEBRASKA AND FAR NORTHEAST COLORADO...

CITY           SKY/WX    TMP DP  RH WIND       PRES   REMARKS
HOLYOKE        FAIR      41  28  60 NW8       30.15S
IMPERIAL       CLOUDY    35  27  72 NW7       30.15S WCI  29
OGALLALA       CLOUDY    29  26  85 CALM      30.14S
NORTH PLATTE   CLEAR     33  27  78 VRB5      30.14R WCI  29
MCCOOK         CLOUDY    35  28  75 N3        30.14R
LEXINGTON      CLEAR     29  26  86 NE6       30.15R WCI  23
PAXTON           N/A     32  26  79 CALM        N/A
STAPLETON        N/A     28  26  91 CALM        N/A
GOTHENBURG       N/A     33  27  80 N6          N/A  WCI  27
CALLAWAY         N/A     29  26  88 NE6         N/A  WCI  23
$$

...OBSERVATIONS IN CENTRAL LINCOLN COUNTY AREA...

CITY           SKY/WX    TMP DP  RH WIND       PRES   REMARKS
N.P. AIRPORT   CLEAR     33  27  78 VRB5      30.14R WCI  29
N.P. DOWNTOWN    N/A     33  29  85 CALM        N/A
N.P. SOUTHEAST   N/A     31  27  85 CALM        N/A
N.P. HILLCREST   N/A     32  28  86 CALM        N/A
$$

...SOME OBSERVATIONS FROM AROUND THE REGION...

CITY           SKY/WX    TMP DP  RH WIND       PRES   REMARKS
DENVER         CLOUDY    34  18  52 S6        30.18F WCI  29
LARAMIE        CLOUDY    32  17  54 W14       30.24R WCI  22
CHEYENNE       CLOUDY    39  15  37 NW16G24   30.18F WCI  30
SCOTTSBLUFF    CLOUDY    30  24  78 NW6       30.15S WCI  24
RAPID CITY     CLOUDY    29  27  92 S5        30.13S WCI  24
BISMARCK       CLOUDY    17  11  77 SE6       30.19F WCI   9
PIERRE         CLOUDY    21  19  92 SE3       30.18F
WINNER         CLOUDY    27  21  78 N5        30.18S WCI  22
SIOUX FALLS    CLOUDY    13   6  74 NE6       30.25R WCI   4
OMAHA          PTCLDY    19  13  77 NE6       30.20S WCI  11
GRAND ISLAND   CLOUDY    27  24  89 NE7       30.16R WCI  19
KANSAS CITY    CLEAR     25  21  85 NE12      30.11R WCI  14
WICHITA        PTCLDY    42  30  62 N8        30.02R
OKLAHOMA CITY  CLEAR     52  30  43 N14       29.97S
LIBERAL        CLOUDY    36  18  48 W10       30.11R WCI  28
HAYS           CLOUDY    39  25  56 NE12      30.10R WCI  32
GOODLAND       CLEAR     34  26  72 NW9       30.15R WCI  27
$$




USA.gov is the U.S. government's official web portal to all federal, state and local government web resources and services.